FENGYUN 1C DEB, 30400

Orbit data source: Space-Track

FENGYUN 1C DEB, 30400 is space debris in SSO originally from a launch on Mon, 10 May 1999 UTC launched from the Taiyaun Space Center, China (TSC). Fengyun 1C debris stems from the Chinese weather satellite Fengyun-1C, which was intentionally destroyed by a Chinese anti-satellite missile in 2007. This event dramatically increased the amount of space debris, with thousands of trackable fragments posing hazards to satellites and human spaceflight. The Fengyun 1C debris cloud has become a focal point in discussions about space sustainability and the need for international regulations to prevent the creation of new debris.

Loading next visibility...
Identifier
30400, 1999-025ADP
Orbit
SSO
Country
Flag of CNCN / PRC
Related business
Manufacturer
Unknown
Mission
Spacecraft
Bus & Motor
Unknown
Mass
Unknown
Launch date (UTC)
1999-05-10 (27 years ago)
Launch vehicle
Unknown
Launch site
Taiyaun Space Center, China (TSC)
Object type
Payload
Rocket body
Debris
Shape & HBR
Unknown shape, 0.1 m
Radar Cross Section
Small (<0.1 m²)

Expand to show TLE details & history
Last TLE update: 13 hours ago

TLE from 13 hours ago
0 FENGYUN 1C DEB
1 30400U 99025ADP 26071.38055368  .00005746  00000-0  25419-2 0  9991
2 30400  99.1585   5.6694 0223180  83.9243  41.5693 14.11160185967784
Epoch: 2026-03-12T09:07Z
TLE epoch observation values (Epoch: 2026-03-12T09:07:59.837Z)
Latitude
51.92526°
Longitude
-109.54951°
Altitude
744.576 km
Speed
7.549 km/s
True Right ascension
13h 09m 55s
True Declination
51° 45' 28"
Sunlit
Object was in full shadow at epoch
Visualization orbit readout
Latitude
Unknown
Longitude
Unknown
Altitude
Unknown
Speed
Unknown
Apparent Right ascension
Unknown
Apparent Declination
Unknown
Sunlit
N/A
Visualization observer readout
Local Sidereal Time
02:06:32
Azimuth
Unknown
Elevation
Unknown
Doppler factor
Unknown
Orbital elements
Apogee altitude
1,013.97 km
Perigee altitude
691.219 km
Semi-major axis
7,230.732 km
Eccentricity
0.02232
Inclination
99.1585°
RAAN
5.6694°
Arg. of periapsis
83.9243°
True anomaly
43.30211°
Mean anomaly
41.5693°
Eccentric anomaly
42.43208°
Mean motion
3.52996 °/min
Orbital period
101.98 mins
BSTAR
0.0025419
Loading maneuver chart data...
Computing Atmospheric mass density...

Documentation

Showing up to 5 results
|